EZS14ZV LSGG-DTTJ

Flight info

Callsign EZS14ZV
Flight time 2h 0m
Altitude 37000
Route MEDAM DCT VEVAR DCT BARSO DCT KOLON DCT LOKDU DCT PELOS DCT IPROM DCT KOVAS DCT DEC DCT DOPEL UG869 TBK UV334 NEDOS V334 KBIRA DCT ZEKRI
Aircraft A320/M-SDE2E3FGHIJ1RWXYZ/LB1

Departure

Time 2026-05-04 11:53
Airport Geneva International Airport (LSGG)

Arrival

Time 2026-05-04 13:53
Airport Djerba Zarzis International Airport (DTTJ)
Time Latitude Longitude Altitude Speed Heading
2026-05-04 11:19 46.23156 6.10741 1393 ft 0 kts 135°
2026-05-04 11:45 46.23167 6.10724 1403 ft 4 kts 124°
2026-05-04 11:45 46.23177 6.10690 1402 ft 3 kts 83°
2026-05-04 11:45 46.23168 6.10662 1394 ft 2 kts 45°
2026-05-04 11:45 46.23155 6.10643 1404 ft 0 kts 45°
2026-05-04 11:47 46.23160 6.10650 1404 ft 7 kts 45°
2026-05-04 11:48 46.23238 6.10586 1396 ft 19 kts 315°
2026-05-04 11:48 46.23324 6.10536 1396 ft 9 kts 53°
2026-05-04 11:48 46.23369 6.10598 1398 ft 11 kts 43°
2026-05-04 11:48 46.23466 6.10730 1387 ft 25 kts 46°
2026-05-04 11:49 46.23590 6.10911 1389 ft 26 kts 45°
2026-05-04 11:49 46.23718 6.11099 1383 ft 28 kts 46°
2026-05-04 11:49 46.23869 6.11318 1373 ft 32 kts 45°
2026-05-04 11:49 46.24032 6.11559 1370 ft 35 kts 46°
2026-05-04 11:50 46.24206 6.11820 1363 ft 37 kts 46°
2026-05-04 11:50 46.24384 6.12081 1368 ft 31 kts 44°
2026-05-04 11:50 46.24528 6.12288 1372 ft 29 kts 45°
2026-05-04 11:50 46.24674 6.12503 1365 ft 32 kts 45°
2026-05-04 11:51 46.24844 6.12692 1362 ft 27 kts 12°
2026-05-04 11:51 46.24947 6.12733 1368 ft 6 kts 18°
2026-05-04 11:51 46.25031 6.12697 1372 ft 11 kts 298°
2026-05-04 11:51 46.25016 6.12669 1372 ft 5 kts 214°
2026-05-04 11:52 46.25002 6.12651 1372 ft 1 kts 225°
2026-05-04 11:52 46.24862 6.12447 1372 ft 64 kts 225°
2026-05-04 11:52 46.24403 6.11771 1372 ft 122 kts 226°
2026-05-04 11:52 46.23694 6.10727 1406 ft 165 kts 227°
2026-05-04 11:53 46.22905 6.09537 2065 ft 164 kts 227°
2026-05-04 11:53 46.22380 6.08756 2506 ft 166 kts 226°
2026-05-04 11:53 46.21208 6.07042 2914 ft 194 kts 225°
2026-05-04 11:53 46.20189 6.05560 3247 ft 220 kts 224°
2026-05-04 11:55 46.10849 5.94505 8728 ft 265 kts 181°
2026-05-04 11:55 46.09029 5.95069 9510 ft 275 kts 159°
2026-05-04 11:56 46.07466 5.96747 10209 ft 289 kts 133°
2026-05-04 11:56 46.06515 5.99343 10917 ft 303 kts 110°
2026-05-04 11:56 46.05954 6.02395 11169 ft 327 kts 107°
2026-05-04 11:56 46.05413 6.05661 11604 ft 341 kts 106°
2026-05-04 11:57 46.04830 6.08996 12284 ft 345 kts 112°
2026-05-04 11:57 46.03822 6.12123 12995 ft 345 kts 125°
2026-05-04 11:57 46.02864 6.13991 13447 ft 344 kts 135°
2026-05-04 11:57 46.01092 6.16290 14112 ft 343 kts 147°
2026-05-04 11:58 45.99157 6.18318 14708 ft 346 kts 148°
2026-05-04 11:58 45.97203 6.20367 15338 ft 349 kts 148°
2026-05-04 11:58 45.95236 6.22433 15987 ft 352 kts 147°
2026-05-04 11:58 45.93255 6.24518 16679 ft 354 kts 147°
2026-05-04 11:59 45.91259 6.26620 17334 ft 357 kts 148°
2026-05-04 11:59 45.89246 6.28737 17976 ft 360 kts 147°
2026-05-04 11:59 45.87220 6.30874 18583 ft 363 kts 147°
2026-05-04 11:59 45.85181 6.33041 19096 ft 366 kts 148°
2026-05-04 12:00 45.83133 6.35224 19648 ft 368 kts 148°
2026-05-04 12:00 45.81104 6.37386 20187 ft 370 kts 148°
2026-05-04 12:00 45.79033 6.39591 20729 ft 372 kts 147°
2026-05-04 12:00 45.76946 6.41807 21262 ft 375 kts 147°
2026-05-04 12:01 45.74842 6.44038 21788 ft 377 kts 147°
2026-05-04 12:01 45.72726 6.46282 22260 ft 380 kts 147°
2026-05-04 12:02 45.59722 6.60002 24938 ft 393 kts 147°
2026-05-04 12:03 45.57512 6.62325 25340 ft 395 kts 147°
2026-05-04 12:03 45.55290 6.64656 25686 ft 398 kts 147°
2026-05-04 12:03 45.53052 6.67001 26035 ft 401 kts 147°
2026-05-04 12:03 45.50797 6.69360 26395 ft 403 kts 147°
2026-05-04 12:04 45.48535 6.71726 26773 ft 405 kts 147°
2026-05-04 12:04 45.46261 6.74106 27152 ft 407 kts 147°
2026-05-04 12:04 45.43968 6.76488 27470 ft 408 kts 147°
2026-05-04 12:04 45.41660 6.78835 27780 ft 409 kts 148°
2026-05-04 12:05 45.39328 6.81170 28119 ft 411 kts 148°
2026-05-04 12:05 45.36979 6.83504 28502 ft 413 kts 148°
2026-05-04 12:05 45.34612 6.85852 28790 ft 416 kts 148°
2026-05-04 12:05 45.32234 6.88214 29105 ft 418 kts 148°
2026-05-04 12:06 45.29844 6.90590 29459 ft 420 kts 149°
2026-05-04 12:06 45.27304 6.92629 29823 ft 419 kts 158°
2026-05-04 12:06 45.24572 6.94033 30151 ft 418 kts 167°
2026-05-04 12:06 45.21719 6.94764 30423 ft 417 kts 176°
2026-05-04 12:07 45.18816 6.95203 30630 ft 420 kts 176°
2026-05-04 12:07 45.15900 6.95647 30848 ft 423 kts 176°
2026-05-04 12:07 45.12968 6.96101 31079 ft 425 kts 176°
2026-05-04 12:07 45.10019 6.96566 31325 ft 427 kts 176°
2026-05-04 12:08 45.07065 6.97031 31588 ft 428 kts 176°
2026-05-04 12:08 45.04111 6.97494 31940 ft 426 kts 177°
2026-05-04 12:08 45.01168 6.97958 32281 ft 425 kts 177°
2026-05-04 12:08 44.98227 6.98421 32649 ft 425 kts 177°
2026-05-04 12:09 44.95290 6.98881 32875 ft 425 kts 178°
2026-05-04 12:09 44.92352 6.99340 33143 ft 425 kts 178°
2026-05-04 12:09 44.89452 6.99791 33401 ft 424 kts 178°
2026-05-04 12:09 44.86521 7.00248 33709 ft 424 kts 178°
2026-05-04 12:10 44.83593 7.00705 34039 ft 423 kts 178°
2026-05-04 12:10 44.80668 7.01072 34347 ft 419 kts 184°
2026-05-04 12:10 44.77784 7.00862 34564 ft 413 kts 192°
2026-05-04 12:10 44.74932 7.00310 34832 ft 413 kts 192°
2026-05-04 12:11 44.72083 6.99761 35110 ft 413 kts 192°
2026-05-04 12:11 44.69236 6.99221 35313 ft 413 kts 192°
2026-05-04 12:11 44.66385 6.98688 35584 ft 413 kts 192°
2026-05-04 12:11 44.63540 6.98160 35823 ft 412 kts 192°
2026-05-04 12:12 44.60698 6.97632 36046 ft 411 kts 193°
2026-05-04 12:12 44.57865 6.97105 36273 ft 411 kts 193°
2026-05-04 12:12 44.55026 6.96576 36494 ft 411 kts 193°
2026-05-04 12:12 44.52189 6.96047 36739 ft 411 kts 193°
2026-05-04 12:13 44.49356 6.95517 36966 ft 410 kts 193°
2026-05-04 12:14 44.29646 6.91851 37127 ft 407 kts 193°
2026-05-04 12:15 44.24023 6.90813 37121 ft 408 kts 193°
2026-05-04 12:15 44.18398 6.89781 37108 ft 408 kts 193°
2026-05-04 12:16 44.12713 6.89276 37116 ft 416 kts 181°
2026-05-04 12:16 44.06934 6.90141 37103 ft 418 kts 180°
2026-05-04 12:17 44.01149 6.91016 37086 ft 419 kts 180°
2026-05-04 12:17 43.95355 6.91887 37088 ft 419 kts 180°
2026-05-04 12:18 43.89562 6.92743 37085 ft 419 kts 180°
2026-05-04 12:18 43.83763 6.93607 37091 ft 419 kts 180°
2026-05-04 12:19 43.77959 6.94474 37079 ft 419 kts 181°
2026-05-04 12:19 43.72168 6.95676 37080 ft 428 kts 171°
2026-05-04 12:20 43.66605 6.98886 37085 ft 436 kts 162°
2026-05-04 12:20 43.61102 7.02415 37068 ft 436 kts 162°
2026-05-04 12:21 43.55591 7.05920 37082 ft 436 kts 163°
2026-05-04 12:21 43.50077 7.09407 37081 ft 436 kts 163°
2026-05-04 12:22 43.44567 7.12906 37078 ft 436 kts 162°
2026-05-04 12:22 43.39057 7.16396 37056 ft 436 kts 163°
2026-05-04 12:23 43.33578 7.19863 37058 ft 437 kts 163°
2026-05-04 12:23 43.28054 7.23339 37061 ft 437 kts 163°
2026-05-04 12:24 43.22523 7.26806 37068 ft 437 kts 163°
2026-05-04 12:24 43.16986 7.30279 37061 ft 438 kts 163°
2026-05-04 12:25 43.11449 7.33742 37068 ft 438 kts 164°
2026-05-04 12:25 43.05907 7.37211 37070 ft 438 kts 163°
2026-05-04 12:26 43.00365 7.40677 37072 ft 438 kts 164°
2026-05-04 12:26 42.94825 7.44124 37061 ft 437 kts 164°
2026-05-04 12:27 42.89291 7.47567 37071 ft 437 kts 164°
2026-05-04 12:27 42.83751 7.51005 37076 ft 437 kts 165°
2026-05-04 12:28 42.78211 7.54423 37070 ft 437 kts 165°
2026-05-04 12:28 42.72677 7.57834 37066 ft 437 kts 165°
2026-05-04 12:29 42.67134 7.61251 37034 ft 438 kts 165°
2026-05-04 12:29 42.61578 7.64671 37040 ft 439 kts 165°
2026-05-04 12:30 42.56004 7.68091 37046 ft 440 kts 165°
2026-05-04 12:30 42.50418 7.71511 37055 ft 441 kts 165°
2026-05-04 12:31 42.44825 7.74932 37052 ft 441 kts 165°
2026-05-04 12:31 42.39225 7.78357 37058 ft 442 kts 165°
2026-05-04 12:32 42.30817 7.83474 37047 ft 442 kts 165°
2026-05-04 12:33 42.25209 7.86877 37060 ft 442 kts 165°
2026-05-04 12:33 42.19601 7.90279 37065 ft 442 kts 165°
2026-05-04 12:34 42.13995 7.93677 37069 ft 442 kts 165°
2026-05-04 12:34 42.08389 7.97066 37043 ft 442 kts 165°
2026-05-04 12:35 42.02775 8.00447 37046 ft 443 kts 165°
2026-05-04 12:35 41.97112 8.03302 37044 ft 429 kts 177°
2026-05-04 12:36 41.91281 8.04359 37024 ft 422 kts 182°
2026-05-04 12:36 41.85449 8.05270 37029 ft 422 kts 182°
2026-05-04 12:37 41.79609 8.06200 37041 ft 422 kts 182°
2026-05-04 12:37 41.73772 8.07122 37051 ft 422 kts 182°
2026-05-04 12:38 41.67933 8.08050 37046 ft 422 kts 182°
2026-05-04 12:38 41.62101 8.08976 37056 ft 422 kts 182°
2026-05-04 12:39 41.56270 8.09886 37055 ft 422 kts 182°
2026-05-04 12:39 41.50444 8.10798 37057 ft 421 kts 182°
2026-05-04 12:40 41.44623 8.11710 37044 ft 421 kts 182°
2026-05-04 12:40 41.38807 8.12620 37049 ft 421 kts 182°
2026-05-04 12:41 41.32995 8.13523 37052 ft 420 kts 182°
2026-05-04 12:41 41.27224 8.14418 37029 ft 420 kts 182°
2026-05-04 12:42 41.21418 8.15330 37037 ft 420 kts 182°
2026-05-04 12:42 41.15634 8.17000 37040 ft 438 kts 167°
2026-05-04 12:42 41.12872 8.18835 37040 ft 450 kts 157°
2026-05-04 12:43 41.10206 8.21015 37042 ft 450 kts 158°
2026-05-04 12:43 41.04669 8.24606 37018 ft 442 kts 165°
2026-05-04 12:44 40.99073 8.27972 37030 ft 442 kts 165°
2026-05-04 12:44 40.94418 8.30773 37040 ft 442 kts 165°
2026-05-04 12:45 40.88775 8.34158 37043 ft 442 kts 165°
2026-05-04 12:45 40.83194 8.37489 37039 ft 444 kts 165°
2026-05-04 12:46 40.77560 8.40846 37025 ft 445 kts 165°
2026-05-04 12:46 40.71915 8.44214 37039 ft 446 kts 165°
2026-05-04 12:47 40.66263 8.47580 37043 ft 446 kts 165°
2026-05-04 12:47 40.60607 8.50944 37052 ft 446 kts 165°
2026-05-04 12:48 40.54942 8.54303 37032 ft 447 kts 165°
2026-05-04 12:48 40.49265 8.57660 37040 ft 448 kts 165°
2026-05-04 12:49 40.43584 8.61013 37043 ft 448 kts 165°
2026-05-04 12:49 40.37896 8.64358 37053 ft 448 kts 165°
2026-05-04 12:50 40.32201 8.67712 37064 ft 449 kts 165°
2026-05-04 12:50 40.26508 8.71062 37069 ft 449 kts 165°
2026-05-04 12:51 40.20812 8.74405 37052 ft 449 kts 165°
2026-05-04 12:51 40.15098 8.77752 37047 ft 450 kts 165°
2026-05-04 12:52 40.09370 8.81105 37035 ft 452 kts 164°
2026-05-04 12:52 40.03626 8.84449 37042 ft 453 kts 164°
2026-05-04 12:53 39.97873 8.87785 37049 ft 453 kts 164°
2026-05-04 12:53 39.92114 8.91126 37048 ft 453 kts 164°
2026-05-04 12:54 39.86353 8.94467 37041 ft 454 kts 163°
2026-05-04 12:54 39.80579 8.97809 37043 ft 455 kts 163°
2026-05-04 12:55 39.74788 9.01158 37045 ft 455 kts 163°
2026-05-04 12:55 39.68959 9.04337 37043 ft 448 kts 172°
2026-05-04 12:56 39.62957 9.05433 37029 ft 428 kts 190°
2026-05-04 12:56 39.57262 9.04165 37038 ft 412 kts 205°
2026-05-04 12:57 39.51774 9.01973 37041 ft 414 kts 205°
2026-05-04 12:57 39.46261 8.99790 37046 ft 415 kts 205°
2026-05-04 12:58 39.40738 8.97605 37038 ft 416 kts 205°
2026-05-04 12:58 39.34964 8.96247 37061 ft 430 kts 192°
2026-05-04 12:59 39.28990 8.95684 37066 ft 431 kts 192°
2026-05-04 12:59 39.23005 8.95104 37078 ft 431 kts 192°
2026-05-04 13:00 39.17018 8.94518 37081 ft 431 kts 192°
2026-05-04 13:00 39.11030 8.93942 37073 ft 431 kts 192°
2026-05-04 13:01 39.05053 8.93373 37079 ft 431 kts 192°
2026-05-04 13:01 38.99072 8.92796 37062 ft 431 kts 192°
2026-05-04 13:02 38.93085 8.92224 37067 ft 431 kts 192°
2026-05-04 13:02 38.87104 8.91648 37072 ft 431 kts 192°
2026-05-04 13:03 38.81123 8.91071 37076 ft 431 kts 192°
2026-05-04 13:03 38.75150 8.90498 37064 ft 430 kts 192°
2026-05-04 13:04 38.69181 8.89928 37071 ft 430 kts 192°
2026-05-04 13:04 38.63219 8.89359 37075 ft 429 kts 192°
2026-05-04 13:05 38.57262 8.88794 37072 ft 429 kts 192°
2026-05-04 13:05 38.51303 8.88275 37056 ft 430 kts 190°
2026-05-04 13:06 38.45284 8.89154 37050 ft 449 kts 169°
2026-05-04 13:06 38.39336 8.91584 37042 ft 449 kts 169°
2026-05-04 13:07 38.33391 8.94075 37046 ft 450 kts 169°
2026-05-04 13:07 38.27440 8.96571 37042 ft 450 kts 169°
2026-05-04 13:08 38.21532 8.99025 37050 ft 450 kts 169°
2026-05-04 13:08 38.15577 9.01487 37060 ft 450 kts 169°
2026-05-04 13:09 38.09622 9.03959 37063 ft 450 kts 169°
2026-05-04 13:09 38.03669 9.06431 37062 ft 450 kts 169°
2026-05-04 13:10 37.97721 9.08893 37058 ft 450 kts 169°
2026-05-04 13:10 37.91766 9.11355 37048 ft 450 kts 168°
2026-05-04 13:11 37.85807 9.13809 37047 ft 451 kts 168°
2026-05-04 13:11 37.79846 9.16259 37041 ft 450 kts 169°
2026-05-04 13:12 37.73882 9.18704 37049 ft 450 kts 169°
2026-05-04 13:12 37.67923 9.21144 37052 ft 450 kts 169°
2026-05-04 13:13 37.61960 9.23586 37053 ft 450 kts 169°
2026-05-04 13:13 37.55999 9.26022 37033 ft 450 kts 169°
2026-05-04 13:14 37.50044 9.28447 37048 ft 450 kts 169°
2026-05-04 13:14 37.44086 9.30875 37052 ft 450 kts 169°
2026-05-04 13:15 37.38128 9.33293 37053 ft 450 kts 169°
2026-05-04 13:15 37.32171 9.35710 37038 ft 450 kts 169°
2026-05-04 13:16 37.26250 9.38110 37044 ft 450 kts 169°
2026-05-04 13:16 37.20294 9.40522 37046 ft 450 kts 169°
2026-05-04 13:17 37.14337 9.42930 37044 ft 450 kts 169°
2026-05-04 13:17 37.08377 9.45333 37019 ft 450 kts 169°
2026-05-04 13:18 37.02416 9.47726 37012 ft 450 kts 169°
2026-05-04 13:18 36.96439 9.50120 37015 ft 452 kts 169°
2026-05-04 13:19 36.90453 9.52518 37014 ft 452 kts 169°
2026-05-04 13:19 36.84462 9.54920 36997 ft 452 kts 169°
2026-05-04 13:20 36.78511 9.57306 37004 ft 452 kts 169°
2026-05-04 13:20 36.72519 9.59709 37004 ft 452 kts 169°
2026-05-04 13:21 36.66524 9.62101 37010 ft 452 kts 169°
2026-05-04 13:21 36.60531 9.64480 37006 ft 452 kts 169°
2026-05-04 13:22 36.54538 9.66850 36998 ft 452 kts 169°
2026-05-04 13:22 36.48585 9.69204 37006 ft 452 kts 169°
2026-05-04 13:23 36.42590 9.71577 37012 ft 452 kts 169°
2026-05-04 13:23 36.36592 9.73951 37014 ft 452 kts 169°
2026-05-04 13:24 36.30594 9.76317 37003 ft 452 kts 169°
2026-05-04 13:24 36.24633 9.78666 37012 ft 453 kts 169°
2026-05-04 13:25 36.15627 9.82203 37023 ft 453 kts 169°
2026-05-04 13:25 36.09621 9.84561 37021 ft 453 kts 169°
2026-05-04 13:26 36.03610 9.86914 37005 ft 453 kts 169°
2026-05-04 13:26 35.97633 9.89245 37008 ft 454 kts 169°
2026-05-04 13:27 35.91609 9.91599 37013 ft 454 kts 169°
2026-05-04 13:27 35.85581 9.93957 37029 ft 454 kts 169°
2026-05-04 13:28 35.79558 9.96308 37000 ft 454 kts 169°
2026-05-04 13:28 35.73533 9.98646 37014 ft 454 kts 169°
2026-05-04 13:29 35.67510 10.00977 36990 ft 454 kts 169°
2026-05-04 13:29 35.64535 10.02128 36742 ft 454 kts 169°
2026-05-04 13:29 35.61526 10.03294 36323 ft 452 kts 168°
2026-05-04 13:30 35.58531 10.04455 35746 ft 450 kts 168°
2026-05-04 13:30 35.55550 10.05611 35230 ft 448 kts 168°
2026-05-04 13:30 35.52584 10.06760 34697 ft 446 kts 168°
2026-05-04 13:30 35.49626 10.07902 34161 ft 445 kts 168°
2026-05-04 13:31 35.46679 10.09038 33580 ft 443 kts 168°
2026-05-04 13:31 35.43751 10.10167 33054 ft 440 kts 168°
2026-05-04 13:31 35.40885 10.11272 32540 ft 437 kts 168°
2026-05-04 13:31 35.37993 10.12383 32018 ft 434 kts 168°
2026-05-04 13:32 35.35123 10.13483 31509 ft 431 kts 168°
2026-05-04 13:32 35.32271 10.14578 30996 ft 429 kts 168°
2026-05-04 13:32 35.29438 10.15665 30520 ft 425 kts 168°
2026-05-04 13:32 35.26619 10.16746 30025 ft 423 kts 168°
2026-05-04 13:33 35.23824 10.17822 29510 ft 419 kts 167°
2026-05-04 13:33 35.21064 10.18887 29051 ft 414 kts 167°
2026-05-04 13:33 35.18334 10.19940 28598 ft 409 kts 167°
2026-05-04 13:33 35.15635 10.20977 28152 ft 404 kts 168°
2026-05-04 13:34 35.12998 10.21984 27710 ft 401 kts 168°
2026-05-04 13:34 35.10348 10.22992 27269 ft 397 kts 168°
2026-05-04 13:34 35.07723 10.23991 26814 ft 394 kts 168°
2026-05-04 13:34 35.05119 10.24981 26356 ft 391 kts 168°
2026-05-04 13:35 35.02533 10.25966 25890 ft 388 kts 167°
2026-05-04 13:35 34.97392 10.27920 24976 ft 386 kts 167°
2026-05-04 13:35 34.94830 10.28891 24480 ft 385 kts 167°
2026-05-04 13:36 34.92309 10.29850 24000 ft 384 kts 167°
2026-05-04 13:36 34.89757 10.30820 23489 ft 384 kts 167°
2026-05-04 13:36 34.87209 10.31789 22971 ft 383 kts 167°
2026-05-04 13:36 34.84672 10.32752 22496 ft 380 kts 167°
2026-05-04 13:37 34.82151 10.33711 22028 ft 379 kts 167°
2026-05-04 13:37 34.79644 10.34663 21551 ft 377 kts 167°
2026-05-04 13:37 34.77151 10.35607 21100 ft 375 kts 167°
2026-05-04 13:37 34.75499 10.36233 20794 ft 374 kts 166°
2026-05-04 13:38 34.72181 10.37488 20188 ft 373 kts 166°
2026-05-04 13:38 34.69710 10.38419 19732 ft 372 kts 166°
2026-05-04 13:38 34.67241 10.39351 19270 ft 371 kts 166°
2026-05-04 13:38 34.64812 10.40268 18830 ft 370 kts 166°
2026-05-04 13:39 34.62355 10.41197 18373 ft 370 kts 166°
2026-05-04 13:39 34.59899 10.42122 17881 ft 369 kts 166°
2026-05-04 13:39 34.57462 10.43041 17490 ft 364 kts 165°
2026-05-04 13:39 34.55048 10.43952 17076 ft 362 kts 165°
2026-05-04 13:40 34.52646 10.44861 16630 ft 360 kts 165°
2026-05-04 13:40 34.50272 10.45757 16205 ft 358 kts 165°
2026-05-04 13:40 34.47913 10.46644 15859 ft 353 kts 165°
2026-05-04 13:40 34.45566 10.47522 15499 ft 350 kts 165°
2026-05-04 13:41 34.43284 10.48378 15121 ft 347 kts 165°
2026-05-04 13:41 34.40985 10.49240 14748 ft 345 kts 165°
2026-05-04 13:41 34.38697 10.50097 14400 ft 342 kts 164°
2026-05-04 13:42 34.34196 10.51779 13495 ft 333 kts 164°
2026-05-04 13:42 34.31996 10.52601 12842 ft 327 kts 165°
2026-05-04 13:42 34.29864 10.53401 12436 ft 314 kts 164°
2026-05-04 13:42 34.27820 10.54168 12069 ft 302 kts 164°
2026-05-04 13:43 34.25851 10.54908 11704 ft 291 kts 163°
2026-05-04 13:43 34.24020 10.55853 11354 ft 282 kts 155°
2026-05-04 13:43 34.22307 10.56869 11113 ft 275 kts 155°
2026-05-04 13:43 34.20614 10.57868 10921 ft 267 kts 156°
2026-05-04 13:44 34.18955 10.58841 10477 ft 264 kts 155°
2026-05-04 13:44 34.17312 10.59804 10028 ft 261 kts 155°
2026-05-04 13:44 34.15687 10.60760 9516 ft 259 kts 155°
2026-05-04 13:44 34.14077 10.61709 9003 ft 256 kts 154°
2026-05-04 13:45 34.12482 10.62648 8500 ft 254 kts 155°
2026-05-04 13:45 34.10903 10.63575 7989 ft 251 kts 155°
2026-05-04 13:45 34.09334 10.64495 7526 ft 249 kts 154°
2026-05-04 13:45 34.07770 10.65413 7139 ft 251 kts 154°
2026-05-04 13:46 34.06197 10.66270 6742 ft 252 kts 165°
2026-05-04 13:46 34.04491 10.66222 6419 ft 249 kts 199°
2026-05-04 13:46 34.03058 10.65081 6096 ft 246 kts 227°
2026-05-04 13:46 34.02010 10.63443 5643 ft 250 kts 231°
2026-05-04 13:47 34.00894 10.61887 5452 ft 241 kts 226°
2026-05-04 13:47 33.99696 10.60502 5176 ft 237 kts 220°
2026-05-04 13:47 33.98366 10.59228 4435 ft 253 kts 215°
2026-05-04 13:47 33.96856 10.58065 3826 ft 261 kts 208°
2026-05-04 13:48 33.95236 10.57079 3404 ft 261 kts 202°
2026-05-04 13:48 33.93585 10.56304 3139 ft 253 kts 197°
2026-05-04 13:48 33.91934 10.55733 3012 ft 241 kts 192°
2026-05-04 13:48 33.90326 10.55410 2882 ft 228 kts 178°
2026-05-04 13:49 33.88837 10.55823 2754 ft 216 kts 151°
2026-05-04 13:49 33.87712 10.56952 2569 ft 210 kts 125°
2026-05-04 13:49 33.87128 10.58559 2504 ft 211 kts 101°
2026-05-04 13:49 33.87091 10.60275 2467 ft 202 kts 89°
2026-05-04 13:50 33.87139 10.61951 2282 ft 200 kts 90°
2026-05-04 13:50 33.87185 10.63633 2028 ft 200 kts 90°
2026-05-04 13:50 33.87228 10.65253 1790 ft 192 kts 89°
2026-05-04 13:50 33.87269 10.66805 1538 ft 180 kts 90°
2026-05-04 13:51 33.87306 10.68263 1299 ft 169 kts 91°
2026-05-04 13:51 33.87341 10.69625 1086 ft 157 kts 90°
2026-05-04 13:51 33.87373 10.70863 909 ft 141 kts 91°
2026-05-04 13:51 33.87402 10.72031 707 ft 139 kts 89°
2026-05-04 13:52 33.87456 10.73955 396 ft 139 kts 90°
2026-05-04 13:52 33.87482 10.75114 224 ft 139 kts 92°
2026-05-04 13:52 33.87520 10.76638 24 ft 131 kts 89°
2026-05-04 13:53 33.87539 10.77550 23 ft 85 kts 89°
2026-05-04 13:53 33.87555 10.78073 23 ft 50 kts 88°
2026-05-04 13:53 33.87565 10.78475 19 ft 44 kts 88°
2026-05-04 13:54 33.87401 10.78545 22 ft 20 kts 249°
2026-05-04 13:54 33.87395 10.78400 27 ft 16 kts 269°
2026-05-04 13:54 33.87397 10.78121 26 ft 19 kts 270°
2026-05-04 13:55 33.87390 10.77893 27 ft 22 kts 270°
2026-05-04 13:55 33.87382 10.77566 26 ft 21 kts 268°
2026-05-04 13:55 33.87330 10.77530 27 ft 7 kts 179°
2026-05-04 13:56 33.87316 10.77530 27 ft 0 kts 177°